OBJECT A, 66313

Orbit data source: Space-Track

You're viewing an Uncataloged Satellite

Recently launched and/or uncataloged satellites may have evolving metadata. Metadata may include but not limited to: Owner, Maufacturer, Bus, Motor, and Mission.

OBJECT A, 66313 is a satellite owned by PLA SSF (CN) that was launched on Mon, 03 Nov 2025 UTC launched from the Wenchang Satellite Launch Center (WSC). Unknown objects in Earth's orbit typically refer to objects detected orbiting the Earth but have not yet been identified or cataloged. These objects could be anything from previously untracked satellites, spent rocket stages, debris from satellite collisions, or even natural meteoroids temporarily captured by Earth's gravity.

Loading next visibility...
Identifier
66313, 2025-250A
Orbit
Active
Country
Flag of CNCN / PRC
Related business
Manufacturer
CAST
Mission
Operational spacecraft
Bus & Motor
YG46, LAE
Mass
~5,000 kg wet, ~2,500 kg dry
Launch date (UTC)
2025-11-03 (1 month ago)
Launch vehicle
Unknown
Launch site
Wenchang Satellite Launch Center (WSC)
Object type
Unknown
Shape & HBR
Unknown
Radar Cross Section
RCS unknown

Expand to show TLE details & history
Last TLE update: 20 hours ago

TLE from 20 hours ago
0 OBJECT A
1 66313U 25250A   25342.00756292 -.00000016  00000-0  00000-0 0  9998
2 66313  20.0385  95.6978 0001840 228.0228 131.9626  5.31214340  1934
Epoch: 2025-12-08T00:10Z
TLE epoch observation values (Epoch: 2025-12-08T00:10:53.436Z)
Latitude
-0.00001°
Longitude
15.94693°
Altitude
7,497.01 km
Speed
5.36 km/s
True Right ascension
06h 22m 43s
True Declination
0° 00' 00"
Sunlit
Object was in daylight at epoch
Visualization orbit readout
Latitude
Unknown
Longitude
Unknown
Altitude
Unknown
Speed
Unknown
Apparent Right ascension
Unknown
Apparent Declination
Unknown
Sunlit
N/A
Visualization observer readout
Local Sidereal Time
17:53:22
Azimuth
Unknown
Elevation
Unknown
Doppler factor
Unknown
Orbital elements
Apogee altitude
7,501.689 km
Perigee altitude
7,496.582 km
Semi-major axis
13,877.272 km
Eccentricity
0.00018
Inclination
20.0385°
RAAN
95.6978°
Arg. of periapsis
228.0228°
True anomaly
131.97828°
Mean anomaly
131.9626°
Eccentric anomaly
131.97044°
Mean motion
1.32766 °/min
Orbital period
271.15 mins
BSTAR
0
Loading maneuver chart data...
Computing Atmospheric mass density...
Loading historical data...
Loading historical data...
Loading historical data...
Loading historical data...
Loading historical data...
Loading historical data...
Loading historical data...
Other satellites on launch #250 in the year 2025 (2025-11-03 UTC)

Documentation

Showing up to 5 results
|